[[[{"header":{"parameterUnit":"kt","parameterCategory":2,"dx":1,"dy":1,"la1":30.253999710083008,"la2":30.299108505249023,"lo1":-89.0895004272461,"lo2":-89.04439544677734,"nx":28,"ny":28,"refTime":"2022-09-20T15:00:00:Z","depth":0,"parameterNumber":1,"parameterNumberName":"U-component_of_WINDS"},"data":[-3.1493,-3.1535,-3.1509,-3.1545,-3.1527,-3.1548,-3.1547,-3.1543,-3.1533,-3.1555,-3.1563,-3.1541,-3.1521,-3.1525,-3.1532,-3.1522,-3.1529,-3.1564,-3.1547,-3.1412,-3.1392,-3.1372,-3.1361,-3.1565,-3.1565,-3.1691,-3.1693,-3.1694,-3.1401,-3.1384,-3.1394,-3.1387,-3.1396,-3.1346,-3.1336,-3.1348,-3.1368,-3.1355,-3.1361,-3.1378,-3.1388,-3.1354,-3.136,-3.138,-3.1358,-3.1384,-3.1384,-3.1382,-3.1236,-3.1225,-3.1403,-3.1402,-3.1402,-3.1402,-3.1402,-3.1402,-3.1226,-3.1252,-3.1231,-3.1242,-3.123,-3.1226,-3.1246,-3.1217,-3.1227,-3.1228,-3.1193,-3.1215,-3.1197,-3.1189,-3.118,-3.1197,-3.1163,-3.1183,-3.1189,-3.1196,-3.1208,-3.1036,-3.1195,-3.1195,-3.1194,-3.1194,-3.1193,0,-3.1091,-3.1066,-3.1073,-3.1074,-3.108,-3.1077,-3.1069,-3.1081,-3.1019,-3.103,-3.1043,-3.1047,-3.1053,-3.1064,-3.1062,-3.1047,-3.0998,-3.0988,-3.1003,-3.1023,-3.1041,-3.1035,-3.0802,-3.0984,-3.0982,-3.0981,-3.098,-3.0979,-3.0915,-3.0947,-3.0911,-3.092,-3.0908,-3.0923,-3.0927,-3.0869,-3.0875,-3.0858,-3.0883,-3.0892,-3.0896,-3.0922,-3.0888,-3.0893,-3.0869,-3.0943,-3.087,-3.0887,-3.0874,-3.0875,-3.0879,-3.0959,-3.0962,-3.0964,-3.0965,0,-3.082,-3.0774,-3.0814,-3.0773,-3.0764,-3.0801,-3.0767,-3.079,-3.0758,-3.0785,-3.0788,-3.0739,-3.0753,-3.0706,-3.0712,-3.0687,-3.0751,-3.0726,-3.0758,-3.0751,-3.0814,-3.0811,-3.1021,-3.1047,-3.0831,-3.0833,-3.0835,0,-3.0654,-3.0697,-3.0626,-3.0651,-3.0698,-3.0638,-3.0686,-3.0663,-3.0644,-3.0665,-3.0599,-3.0621,-3.0556,-3.057,-3.0534,-3.0576,-3.0576,-3.0561,-3.0552,-3.0569,-3.0572,-3.0574,-3.0565,-3.0523,-3.0522,-3.0522,-3.0521,0,-3.0512,-3.0522,-3.0563,-3.0558,-3.0518,-3.0539,-3.0524,-3.0502,-3.0505,-3.0502,-3.0504,-3.0504,-3.0505,-3.0507,-3.046,-3.0413,-3.051,-3.0435,-3.0495,-3.0496,-3.0521,-3.052,-3.0716,-3.0519,-3.0519,-3.0519,-3.0518,0,-3.0371,-3.0367,-3.0431,-3.0398,-3.0403,-3.0429,-3.0425,-3.0436,-3.0417,-3.0395,-3.0392,-3.0343,-3.0373,-3.0303,-3.0346,-3.0298,-3.0303,-3.029,-3.0294,-3.0296,-3.022,-3.0341,-3.0529,-3.0548,-3.0296,-3.0294,-3.0292,0,-3.0223,-3.0274,-3.0222,-3.0284,-3.0301,-3.0227,-3.0254,-3.0239,-3.0212,-3.0223,-3.0192,-3.0205,-3.0143,-3.014,-3.0167,-3.0137,-3.0199,-3.0127,-3.0148,-3.015,-3.0159,-3.033,-3.0372,-3.0492,-3.0268,-3.027,-3.0272,0,-3.0102,-3.0052,-3.0067,-3.0059,-3.0027,-3.004,-3.0072,-3.007,-3.0081,-3.0069,-3.0096,-3.0111,-3.0066,-3.0062,-3.0021,-3.0052,-3.0155,-2.9998,-2.9997,-3.0031,-3.025,-3.029,-3.031,-3.0121,-3.0124,-3.0127,-3.0252,0,-2.9906,-2.9924,-2.996,-2.9942,-2.9944,-2.9979,-2.9926,-2.9935,-2.9895,-2.9865,-2.9901,-2.9874,-2.9874,-2.9882,-2.9843,-2.9927,-2.9906,-2.9857,-2.9787,-2.9899,-2.9939,-2.9955,-2.9731,-2.9729,-2.9727,-2.9725,0,0,-2.9778,-2.9802,-2.9742,-2.9769,-2.9768,-2.9688,-2.973,-2.9719,-2.9698,-2.97,-2.9659,-2.9678,-2.9658,-2.9708,-2.9738,-2.9737,-2.9748,-2.971,-2.9845,-2.9859,-2.9871,-2.9915,-2.9933,-2.9721,-2.9721,-2.972,-2.9719,0,-2.9695,-2.9674,-2.9715,-2.97,-2.9677,-2.9641,-2.9651,-2.9614,-2.9596,-2.9629,-2.9564,-2.9579,-2.9594,-2.9582,-2.9579,-2.9702,-2.9653,-2.9705,-2.9791,-2.9827,-2.9843,-2.9857,-2.9904,-2.9921,-2.9714,-2.9715,-2.9715,0,-2.9569,-2.9541,-2.9554,-2.9543,-2.9527,-2.9545,-2.9458,-2.948,-2.9493,-2.9405,-2.944,-2.9418,-2.9397,-2.9449,-2.947,-2.9435,-2.9571,-2.9517,-2.9528,-2.953,-2.9562,-2.9581,-2.9599,-2.9369,-2.9368,-2.9367,0,0,-2.9506,-2.952,-2.9471,-2.9521,-2.9515,-2.9463,-2.9466,-2.9427,-2.9409,-2.9402,-2.9372,-2.9358,-2.9366,-2.9373,-2.9377,-2.9441,-2.9434,-2.9476,-2.9493,-2.9506,-2.9516,-2.9551,-2.957,-2.9364,-2.9364,-2.9363,0,0,-2.9475,-2.9419,-2.9382,-2.9433,-2.9418,-2.9373,-2.9407,-2.936,-2.9358,-2.9348,-2.9283,-2.9276,-2.9323,-2.9304,-2.9261,-2.9352,-2.9283,-2.9292,-2.9363,-2.9383,-2.9398,-2.9403,-2.9169,0,0,0,0,0,-2.9363,-2.9426,-2.9393,-2.9393,-2.9378,-2.9392,-2.9389,-2.9336,-2.9289,-2.9318,-2.9286,-2.9231,-2.9268,-2.9228,-2.923,-2.9279,-2.9316,-2.9324,-2.9332,-2.9438,-2.9459,-2.9477,0,0,0,0,0,0,-2.9362,-2.9363,-2.9391,-2.9349,-2.9345,-2.9389,-2.9298,-2.9285,-2.9285,-2.9274,-2.9239,-2.923,-2.9185,-2.9223,-2.9226,-2.9274,-2.9168,-2.9319,-2.9326,-2.9333,-2.9445,-2.9463,-2.9478,0,0,0,0,0,-2.9362,-2.9362,-2.9353,-2.9348,-2.9345,-2.9289,-2.9295,-2.9284,-2.9283,-2.9233,-2.9222,-2.9242,-2.9188,-2.9187,-2.9224,-2.9274,-2.9165,-2.9167,-2.9324,-2.933,-2.9335,-2.9454,0,0,0,0,0,0,-2.9361,-2.9352,-2.9351,-2.9348,-2.9319,-2.9285,-2.9278,-2.9283,-2.924,-2.923,-2.9232,-2.9225,-2.9191,-2.9189,-2.9189,-2.9277,-2.9164,-2.9165,-2.9166,-2.9328,-2.9333,-2.9337,0,0,0,0,0,0,-2.9352,-2.9351,-2.9349,-2.9316,-2.9309,-2.9283,-2.9276,-2.93,-2.924,-2.9242,-2.9234,-2.9229,-2.9192,-2.9191,-2.9191,-2.9229,-2.9162,-2.9163,-2.9164,-2.9165,-2.9332,-2.9335,0,0,0,0,0,0,-2.935,-2.9349,-2.9316,-2.9311,-2.9304,-2.9267,-2.9302,-2.9291,-2.9211,-2.9245,-2.9203,-2.9199,-2.9196,-2.9194,-2.9192,-2.9232,-2.923,-2.9162,-2.9163,-2.9164,-2.9164,0,0,0,0,0,0,0,-2.9349,-2.9369,-2.9368,-2.9307,-2.9301,-2.932,-2.932,-2.9319,-2.9211,-2.9207,-2.9204,-2.9201,-2.9156,-2.9157,-2.9158,-2.9234,0,0,-2.9162,-2.9163,0,0,0,0,0,0,0,0,-2.9368,-2.9368,-2.9368,-2.9367,-2.9367,-2.932,-2.932,-2.9319,-2.921,-2.9207,-2.9205,-2.9202,-2.9156,-2.9157,-2.9158,0,0,0,0,0,0,0,0,0,0,0,0,0,0,0,-2.9368,-2.9368,0,-2.932,-2.932,-2.9319,-2.921,-2.9207,-2.9205,-2.9203,-2.9156,-2.9157,-2.9158,0,0,0,0,0,0,0,0,0,0,0,0,0,0,0,0,0,0,0,0,0,0,0,0,0,0,0,0,0,0,0,0,0,0,0,0,0,0,0,0,0,0,0,0,0,0,0,0,0,0,0,0,0,0,0,0,0,0,0,0,0,0,0,0,0,0,0,0,0]}],[{"header":{"parameterUnit":"kt","parameterCategory":2,"dx":1,"dy":1,"la1":30.253999710083008,"la2":30.299108505249023,"lo1":-89.0895004272461,"lo2":-89.04439544677734,"nx":28,"ny":28,"refTime":"2022-09-20T15:00:00:Z","depth":0,"parameterNumber":2,"parameterNumberName":"V-component_of_WINDS"},"data":[-4.7887,-4.7968,-4.7968,-4.8059,-4.8074,-4.8136,-4.8157,-4.8185,-4.8206,-4.8277,-4.8318,-4.8323,-4.8343,-4.8389,-4.8431,-4.8432,-4.8451,-4.848,-4.8477,-4.8349,-4.8331,-4.8314,-4.8297,-4.8484,-4.8484,-4.8611,-4.8612,-4.8613,-4.7794,-4.7811,-4.7859,-4.7905,-4.7946,-4.7918,-4.7952,-4.7987,-4.8042,-4.8068,-4.8108,-4.817,-4.8217,-4.8226,-4.8272,-4.8307,-4.8296,-4.832,-4.8318,-4.8322,-4.8184,-4.8166,-4.8328,-4.8328,-4.8328,-4.8328,-4.8328,-4.8328,-4.7625,-4.7673,-4.7702,-4.7754,-4.7776,-4.7807,-4.7852,-4.7859,-4.7904,-4.7953,-4.7941,-4.8003,-4.8027,-4.808,-4.8097,-4.8143,-4.8116,-4.8141,-4.8148,-4.8155,-4.8164,-4.7985,-4.815,-4.8149,-4.8149,-4.8148,-4.8148,0,-4.7502,-4.7499,-4.7545,-4.7591,-4.7628,-4.7663,-4.7695,-4.7722,-4.7712,-4.7749,-4.7803,-4.7834,-4.7893,-4.7942,-4.7983,-4.7995,-4.797,-4.7965,-4.7983,-4.7992,-4.7994,-4.7996,-4.7774,-4.7961,-4.7959,-4.7958,-4.7957,-4.7957,-4.7333,-4.7389,-4.7417,-4.745,-4.7467,-4.7518,-4.7548,-4.7536,-4.7568,-4.7603,-4.7645,-4.7694,-4.7733,-4.7817,-4.7822,-4.7865,-4.7853,-4.7926,-4.786,-4.7865,-4.7857,-4.7855,-4.7861,-4.794,-4.7942,-4.7944,-4.7945,0,-4.7239,-4.7238,-4.7323,-4.7345,-4.7353,-4.741,-4.7429,-4.7474,-4.7475,-4.7538,-4.7552,-4.7553,-4.7605,-4.7598,-4.7655,-4.765,-4.7744,-4.7729,-4.7736,-4.7734,-4.7799,-4.7794,-4.8009,-4.8037,-4.784,-4.7842,-4.7843,0,-4.7096,-4.7168,-4.7163,-4.7212,-4.7291,-4.7277,-4.7356,-4.7365,-4.7386,-4.7436,-4.7405,-4.7452,-4.7436,-4.7481,-4.7473,-4.7548,-4.7558,-4.7559,-4.7557,-4.7564,-4.7564,-4.7581,-4.7573,-4.7546,-4.7545,-4.7544,-4.7543,0,-4.695,-4.7031,-4.711,-4.7129,-4.7159,-4.7196,-4.721,-4.7234,-4.7263,-4.7299,-4.7317,-4.7359,-4.7383,-4.7415,-4.7406,-4.7362,-4.7496,-4.7434,-4.7498,-4.7498,-4.753,-4.7528,-4.7718,-4.7542,-4.7541,-4.7541,-4.7541,0,-4.6835,-4.6874,-4.6989,-4.7014,-4.7036,-4.7087,-4.7129,-4.7172,-4.7199,-4.7198,-4.7226,-4.7205,-4.7268,-4.7207,-4.7295,-4.724,-4.7265,-4.7271,-4.7276,-4.7283,-4.7215,-4.7326,-4.7506,-4.7525,-4.7287,-4.7285,-4.7283,0,-4.667,-4.6785,-4.6775,-4.6883,-4.6936,-4.69,-4.6956,-4.6981,-4.6985,-4.7029,-4.7032,-4.7081,-4.7034,-4.7049,-4.7092,-4.7098,-4.7168,-4.7087,-4.7151,-4.7153,-4.7148,-4.7312,-4.7342,-4.7467,-4.7256,-4.7258,-4.726,0,-4.6542,-4.6579,-4.6599,-4.662,-4.6652,-4.6695,-4.6759,-4.6806,-4.6836,-4.6866,-4.692,-4.6988,-4.6956,-4.698,-4.6967,-4.7013,-4.712,-4.6972,-4.6972,-4.7001,-4.724,-4.7269,-4.729,-4.71,-4.7104,-4.7106,-4.7239,0,-4.6372,-4.6429,-4.6483,-4.6528,-4.6561,-4.6627,-4.6623,-4.6657,-4.6642,-4.6645,-4.6722,-4.674,-4.6786,-4.6807,-4.6792,-4.6899,-4.6881,-4.6845,-4.6787,-4.6894,-4.6938,-4.6955,-4.6722,-4.672,-4.6719,-4.6718,0,0,-4.6215,-4.6297,-4.6283,-4.6346,-4.6373,-4.6335,-4.6407,-4.6427,-4.647,-4.6489,-4.6456,-4.6555,-4.6571,-4.6665,-4.6698,-4.6716,-4.6735,-4.6697,-4.6842,-4.6856,-4.6869,-4.6916,-4.6934,-4.6715,-4.6714,-4.6714,-4.6713,0,-4.6153,-4.6172,-4.6244,-4.6266,-4.6297,-4.6297,-4.6314,-4.6338,-4.6343,-4.6418,-4.6385,-4.643,-4.6509,-4.6531,-4.6552,-4.6685,-4.6658,-4.6699,-4.6775,-4.6827,-4.6843,-4.6857,-4.6907,-4.6924,-4.671,-4.671,-4.671,0,-4.6028,-4.6046,-4.6081,-4.6139,-4.6159,-4.6213,-4.6151,-4.621,-4.6249,-4.6203,-4.6279,-4.6288,-4.6315,-4.6404,-4.6444,-4.6415,-4.6588,-4.6531,-4.6541,-4.6546,-4.6596,-4.6616,-4.6633,-4.6408,-4.6407,-4.6406,0,0,-4.5975,-4.6027,-4.6043,-4.6126,-4.614,-4.6141,-4.6168,-4.6157,-4.6184,-4.6195,-4.6206,-4.6232,-4.6277,-4.6308,-4.635,-4.6449,-4.6454,-4.6495,-4.6509,-4.6521,-4.6532,-4.6586,-4.6605,-4.6403,-4.6403,-4.6402,0,0,-4.5949,-4.5971,-4.5952,-4.6048,-4.6075,-4.6095,-4.6145,-4.6122,-4.616,-4.6152,-4.6134,-4.614,-4.6223,-4.6232,-4.6182,-4.6329,-4.6271,-4.6283,-4.632,-4.6338,-4.6352,-4.6349,-4.612,0,0,0,0,0,-4.5884,-4.5968,-4.5951,-4.5967,-4.604,-4.6105,-4.6114,-4.6102,-4.6062,-4.6102,-4.6107,-4.6075,-4.6202,-4.6157,-4.6171,-4.6228,-4.6353,-4.6362,-4.637,-4.6442,-4.6461,-4.6477,0,0,0,0,0,0,-4.589,-4.5909,-4.5949,-4.5973,-4.5989,-4.6102,-4.6031,-4.603,-4.6057,-4.605,-4.6075,-4.6076,-4.6066,-4.6148,-4.6162,-4.6216,-4.6115,-4.6357,-4.6364,-4.6371,-4.6448,-4.6464,-4.6477,0,0,0,0,0,-4.5894,-4.5909,-4.603,-4.5971,-4.5986,-4.599,-4.6027,-4.6026,-4.6047,-4.6056,-4.6055,-4.6036,-4.6068,-4.6078,-4.6156,-4.621,-4.6106,-4.6111,-4.6362,-4.6367,-4.6373,-4.6456,0,0,0,0,0,0,-4.5898,-4.5908,-4.6033,-4.6037,-4.5939,-4.5984,-4.599,-4.6023,-4.605,-4.6051,-4.6015,-4.6009,-4.607,-4.6078,-4.6086,-4.6209,-4.6098,-4.6104,-4.6107,-4.6366,-4.6371,-4.6375,0,0,0,0,0,0,-4.59,-4.5912,-4.6035,-4.5994,-4.5993,-4.5978,-4.5984,-4.6047,-4.6051,-4.6007,-4.6003,-4.6012,-4.6057,-4.6078,-4.6084,-4.6184,-4.6093,-4.6098,-4.6101,-4.6103,-4.637,-4.6373,0,0,0,0,0,0,-4.5905,-4.5915,-4.5993,-4.5993,-4.5992,-4.6033,-4.6033,-4.6109,-4.6018,-4.6007,-4.6009,-4.6005,-4.6058,-4.6064,-4.6083,-4.6181,-4.6183,-4.6093,-4.6096,-4.6098,-4.61,0,0,0,0,0,0,0,-4.5908,-4.5844,-4.6011,-4.5991,-4.599,-4.6072,-4.6073,-4.6074,-4.6017,-4.6014,-4.601,-4.6007,-4.6065,-4.607,-4.6075,-4.6178,0,0,-4.6092,-4.6095,0,0,0,0,0,0,0,0,-4.5839,-4.5843,-4.6011,-4.6012,-4.6012,-4.6072,-4.6073,-4.6074,-4.6017,-4.6014,-4.6011,-4.6008,-4.6066,-4.607,-4.6075,0,0,0,0,0,0,0,0,0,0,0,0,0,0,0,-4.6011,-4.6011,0,-4.6072,-4.6073,-4.6073,-4.6016,-4.6014,-4.6012,-4.6009,-4.6067,-4.6071,-4.6075,0,0,0,0,0,0,0,0,0,0,0,0,0,0,0,0,0,0,0,0,0,0,0,0,0,0,0,0,0,0,0,0,0,0,0,0,0,0,0,0,0,0,0,0,0,0,0,0,0,0,0,0,0,0,0,0,0,0,0,0,0,0,0,0,0,0,0,0,0]}]]]